W9IF-4 Weather Reports


Display with metric or nautical units.
time (UTC)temp
F
wind
direction
speed
MPH
gust
MPH
rain 1hr
in
rain 24hr
in
rain mn
in
humidity
%
barometer
mb
20140902015036 72 235 6.0 0.0 0.00 0.00 0.00 1012.2
20140902014737 72 246 8.0 0.0 0.00 0.00 0.00 1012.3
20140902014637 72 233 8.0 0.0 0.00 0.00 0.00 1012.2
20140902014537 72 239 7.0 0.0 0.00 0.00 0.00 1012.3
20140902014436 72 248 7.0 0.0 0.00 0.00 0.00 1012.3
20140902014237 72 242 10.0 0.0 0.00 0.00 0.00 1012.3
20140902014137 72 245 7.0 0.0 0.00 0.00 0.00 1012.2
20140902013936 73 250 8.0 0.0 0.00 0.00 0.00 1012.3
20140902013836 73 240 8.0 0.0 0.00 0.00 0.00 1012.2
20140902013736 73 235 8.0 0.0 0.00 0.00 0.00 1012.3
20140902013637 72 246 7.0 0.0 0.00 0.00 0.00 1012.3
20140902013437 72 235 9.0 0.0 0.00 0.00 0.00 1012.2
20140902013336 72 232 8.0 0.0 0.00 0.00 0.00 1012.2
20140902013237 72 242 9.0 0.0 0.00 0.00 0.00 1012.2
20140902013036 72 228 8.0 0.0 0.00 0.00 0.00 1012.2
20140902012936 72 232 9.0 0.0 0.00 0.00 0.00 1012.2
20140902012836 73 242 9.0 0.0 0.00 0.00 0.00 1012.2
20140902012737 72 245 9.0 0.0 0.00 0.00 0.00 1012.2
20140902012437 73 256 8.0 0.0 0.00 0.00 0.00 1012.2
20140902012336 72 235 7.0 0.0 0.00 0.00 0.00 1012.2
20140902012236 72 253 7.0 0.0 0.00 0.00 0.00 1012.2
20140902012136 72 246 7.0 0.0 0.00 0.00 0.00 1012.2
20140902012036 72 240 8.0 0.0 0.00 0.00 0.00 1012.2
20140902011936 73 238 9.0 0.0 0.00 0.00 0.00 1012.2
20140902011836 73 253 9.0 0.0 0.00 0.00 0.00 1012.2
20140902011736 74 248 9.0 0.0 0.00 0.00 0.00 1012.2
20140902011636 75 222 8.0 0.0 0.00 0.00 0.00 1012.2
20140902011537 75 250 9.0 0.0 0.00 0.00 0.00 1012.2
20140902011436 77 248 11.0 0.0 0.00 0.00 0.00 1012.2
20140902011336 77 246 10.0 0.0 0.00 0.00 0.00 1012.2
20140902011236 78 236 10.0 0.0 0.00 0.00 0.00 1012.2
20140902011136 77 240 9.0 0.0 0.00 0.00 0.00 1012.2
20140902011036 75 246 9.0 0.0 0.00 0.00 0.00 1012.2
20140902010936 75 235 9.0 0.0 0.00 0.00 0.00 1012.2
20140902010836 73 239 10.0 0.0 0.00 0.00 0.00 1012.2
20140902010736 73 236 9.0 0.0 0.00 0.00 0.00 1012.2
20140902010636 73 245 10.0 0.0 0.00 0.00 0.00 1012.2
20140902010536 73 238 10.0 0.0 0.00 0.00 0.00 1012.2
20140902010336 74 252 9.0 0.0 0.00 0.00 0.00 1012.2
20140902010236 73 232 9.0 0.0 0.00 0.00 0.00 1012.2
20140902010137 74 236 10.0 0.0 0.00 0.00 0.00 1012.1
20140902010037 73 242 11.0 0.0 0.00 0.00 0.00 1012.2
20140902005837 74 245 9.0 0.0 0.00 0.00 0.00 1012.1
20140902005736 73 240 10.0 0.0 0.00 0.00 0.00 1012.1
20140902005636 74 243 10.0 0.0 0.00 0.00 0.00 1012.1
20140902005336 74 243 11.0 0.0 0.00 0.00 0.00 1012.1
20140902005236 74 224 11.0 0.0 0.00 0.00 0.00 1012.1
20140902005136 74 233 9.0 0.0 0.00 0.00 0.00 1012.1
20140902005036 74 249 9.0 0.0 0.00 0.00 0.00 1012.1
20140902004936 74 239 10.0 0.0 0.00 0.00 0.00 1012.2
20140902004836 74 243 10.0 0.0 0.00 0.00 0.00 1012.2
20140902004636 75 231 12.0 0.0 0.00 0.00 0.00 1012.1
20140902004537 75 238 11.0 0.0 0.00 0.00 0.00 1012.1
20140902004437 75 240 10.0 0.0 0.00 0.00 0.00 1012.1
20140902004336 75 248 8.0 0.0 0.00 0.00 0.00 1012.2
20140902004136 75 248 10.0 0.0 0.00 0.00 0.00 1012.1
20140902004036 74 236 11.0 0.0 0.00 0.00 0.00 1012.1
20140902003936 75 222 10.0 0.0 0.00 0.00 0.00 1012.1
20140902003836 75 239 10.0 0.0 0.00 0.00 0.00 1012.2
20140902003737 75 245 11.0 0.0 0.00 0.00 0.00 1012.2
20140902003636 75 240 11.0 0.0 0.00 0.00 0.00 1012.2
20140902003536 75 239 11.0 0.0 0.00 0.00 0.00 1012.1
20140902003436 75 242 10.0 0.0 0.00 0.00 0.00 1012.2
20140902003236 75 249 10.0 0.0 0.00 0.00 0.00 1012.1
20140902003136 75 239 12.0 0.0 0.00 0.00 0.00 1012.1
20140902002936 75 235 8.0 0.0 0.00 0.00 0.00 1012.1
20140902002836 75 242 11.0 0.0 0.00 0.00 0.00 1012.1
20140902002737 76 246 11.0 0.0 0.00 0.00 0.00 1012.1
20140902002636 76 235 11.0 0.0 0.00 0.00 0.00 1012.2
20140902002436 75 243 10.0 0.0 0.00 0.00 0.00 1012.2
20140902002336 75 236 11.0 0.0 0.00 0.00 0.00 1012.2
20140902002236 76 238 11.0 0.0 0.00 0.00 0.00 1012.2
20140902002136 75 236 10.0 0.0 0.00 0.00 0.00 1012.2
20140902002036 75 235 10.0 0.0 0.00 0.00 0.00 1012.2
20140902001836 75 235 10.0 0.0 0.00 0.00 0.00 1012.2
20140902001636 75 239 11.0 0.0 0.00 0.00 0.00 1012.2
20140902001436 76 240 12.0 0.0 0.00 0.00 0.00 1012.2
20140902001336 75 231 11.0 0.0 0.00 0.00 0.00 1012.2
20140902001236 76 243 11.0 0.0 0.00 0.00 0.00 1012.2
20140902001136 76 228 11.0 0.0 0.00 0.00 0.00 1012.2
20140902001036 76 239 12.0 0.0 0.00 0.00 0.00 1012.2
20140902000936 76 249 12.0 0.0 0.00 0.00 0.00 1012.2
20140902000836 76 238 11.0 0.0 0.00 0.00 0.00 1012.2
20140902000736 76 233 10.0 0.0 0.00 0.00 0.00 1012.2
20140902000636 75 243 12.0 0.0 0.00 0.00 0.00 1012.3
20140902000436 76 245 11.0 0.0 0.00 0.00 0.00 1012.2
20140902000336 76 238 12.0 0.0 0.00 0.00 0.00 1012.3
20140902000236 77 245 12.0 0.0 0.00 0.00 0.00 1012.2
20140902000136 76 238 13.0 0.0 0.00 0.00 0.00 1012.3
20140901235936 77 239 9.0 0.0 0.00 0.00 0.00 1012.3
20140901235836 76 235 12.0 0.0 0.00 0.00 0.00 1012.2
20140901235736 76 239 11.0 0.0 0.00 0.00 0.00 1012.2
20140901235636 76 238 9.0 0.0 0.00 0.00 0.00 1012.3
20140901235436 76 233 13.0 0.0 0.00 0.00 0.00 1012.3
20140901235336 77 235 11.0 0.0 0.00 0.00 0.00 1012.2
20140901235236 77 243 12.0 0.0 0.00 0.00 0.00 1012.3
20140901235136 77 217 10.0 0.0 0.00 0.00 0.00 1012.2
20140901235036 76 245 12.0 0.0 0.00 0.00 0.00 1012.2
20140901234936 77 235 13.0 0.0 0.00 0.00 0.00 1012.2
20140901234836 77 226 13.0 0.0 0.00 0.00 0.00 1012.2
20140901234736 77 236 12.0 0.0 0.00 0.00 0.00 1012.3
20140901234636 76 245 10.0 0.0 0.00 0.00 0.00 1012.3
20140901234537 76 243 13.0 0.0 0.00 0.00 0.00 1012.2
20140901234436 77 239 15.0 0.0 0.00 0.00 0.00 1012.3
20140901234336 77 240 13.0 0.0 0.00 0.00 0.00 1012.3
20140901234236 77 245 12.0 0.0 0.00 0.00 0.00 1012.2
20140901234036 77 239 13.0 0.0 0.00 0.00 0.00 1012.2
20140901233936 78 245 13.0 0.0 0.00 0.00 0.00 1012.2
20140901233837 77 236 12.0 0.0 0.00 0.00 0.00 1012.2
20140901233736 77 239 13.0 0.0 0.00 0.00 0.00 1012.3
20140901233636 77 240 12.0 0.0 0.00 0.00 0.00 1012.2
20140901233436 77 239 12.0 0.0 0.00 0.00 0.00 1012.2
20140901233336 77 239 14.0 0.0 0.00 0.00 0.00 1012.2
20140901233236 77 239 13.0 0.0 0.00 0.00 0.00 1012.2
20140901233136 78 238 14.0 0.0 0.00 0.00 0.00 1012.2
20140901233036 77 245 14.0 0.0 0.00 0.00 0.00 1012.2
20140901232936 77 245 13.0 0.0 0.00 0.00 0.00 1012.2
20140901232836 78 248 14.0 0.0 0.00 0.00 0.00 1012.2
20140901232736 78 239 11.0 0.0 0.00 0.00 0.00 1012.2
20140901232636 78 238 11.0 0.0 0.00 0.00 0.00 1012.2
20140901232536 77 232 11.0 0.0 0.00 0.00 0.00 1012.2
20140901232436 77 242 12.0 0.0 0.00 0.00 0.00 1012.2
20140901232336 78 240 12.0 0.0 0.00 0.00 0.00 1012.2
20140901232236 78 238 13.0 0.0 0.00 0.00 0.00 1012.2
20140901232136 78 238 14.0 0.0 0.00 0.00 0.00 1012.2
20140901232036 78 249 12.0 0.0 0.00 0.00 0.00 1012.2
20140901231836 78 225 11.0 0.0 0.00 0.00 0.00 1012.2
20140901231736 78 249 13.0 0.0 0.00 0.00 0.00 1012.2
20140901231636 79 240 13.0 0.0 0.00 0.00 0.00 1012.2
20140901231537 79 233 12.0 0.0 0.00 0.00 0.00 1012.2
20140901231436 78 221 9.0 0.0 0.00 0.00 0.00 1012.3
20140901231336 78 246 11.0 0.0 0.00 0.00 0.00 1012.3
20140901231236 79 219 12.0 0.0 0.00 0.00 0.00 1012.2
20140901231136 79 232 12.0 0.0 0.00 0.00 0.00 1012.2
20140901231036 78 224 12.0 0.0 0.00 0.00 0.00 1012.3
20140901230936 79 250 12.0 0.0 0.00 0.00 0.00 1012.2
20140901230836 79 243 13.0 0.0 0.00 0.00 0.00 1012.2
20140901230736 79 238 11.0 0.0 0.00 0.00 0.00 1012.3
20140901230636 78 229 10.0 0.0 0.00 0.00 0.00 1012.2
20140901230536 79 240 13.0 0.0 0.00 0.00 0.00 1012.2
20140901230436 78 222 12.0 0.0 0.00 0.00 0.00 1012.2
20140901230336 78 242 14.0 0.0 0.00 0.00 0.00 1012.2
20140901230236 78 232 13.0 0.0 0.00 0.00 0.00 1012.2
20140901230136 78 246 13.0 0.0 0.00 0.00 0.00 1012.2
20140901230036 79 232 13.0 0.0 0.00 0.00 0.00 1012.3
20140901225936 79 207 12.0 0.0 0.00 0.00 0.00 1012.3
20140901225836 79 226 13.0 0.0 0.00 0.00 0.00 1012.3
20140901225736 79 248 13.0 0.0 0.00 0.00 0.00 1012.3
20140901225636 79 250 12.0 0.0 0.00 0.00 0.00 1012.3
20140901225536 78 235 13.0 0.0 0.00 0.00 0.00 1012.3
20140901225336 79 242 15.0 0.0 0.00 0.00 0.00 1012.3
20140901225236 78 269 9.0 0.0 0.00 0.00 0.00 1012.3
20140901225136 78 236 13.0 0.0 0.00 0.00 0.00 1012.4
20140901225036 79 231 13.0 0.0 0.00 0.00 0.00 1012.3
20140901224936 79 242 14.0 0.0 0.00 0.00 0.00 1012.4
20140901224736 79 242 13.0 0.0 0.00 0.00 0.00 1012.3
20140901224636 79 222 11.0 0.0 0.00 0.00 0.00 1012.3
20140901224537 79 204 12.0 0.0 0.00 0.00 0.00 1012.3
20140901224436 79 245 14.0 0.0 0.00 0.00 0.00 1012.3
20140901224336 79 240 14.0 0.0 0.00 0.00 0.00 1012.3
20140901224136 79 242 11.0 0.0 0.00 0.00 0.00 1012.3
20140901224036 79 231 13.0 0.0 0.00 0.00 0.00 1012.3
20140901223937 79 238 15.0 0.0 0.00 0.00 0.00 1012.3
20140901223836 78 238 14.0 0.0 0.00 0.00 0.00 1012.3
20140901223736 78 239 13.0 0.0 0.00 0.00 0.00 1012.4
20140901223536 79 239 14.0 0.0 0.00 0.00 0.00 1012.4
20140901223436 79 235 15.0 0.0 0.00 0.00 0.00 1012.4
20140901223336 80 245 14.0 0.0 0.00 0.00 0.00 1012.4
20140901223236 80 232 12.0 0.0 0.00 0.00 0.00 1012.4
20140901223036 80 228 12.0 0.0 0.00 0.00 0.00 1012.3
20140901222936 80 240 14.0 0.0 0.00 0.00 0.00 1012.4
20140901222836 80 236 13.0 0.0 0.00 0.00 0.00 1012.3
20140901222736 80 219 9.0 0.0 0.00 0.00 0.00 1012.4
20140901222636 80 243 11.0 0.0 0.00 0.00 0.00 1012.3
20140901222536 80 243 12.0 0.0 0.00 0.00 0.00 1012.4
20140901222436 80 238 12.0 0.0 0.00 0.00 0.00 1012.4
20140901222236 80 239 13.0 0.0 0.00 0.00 0.00 1012.4
20140901222136 80 248 13.0 0.0 0.00 0.00 0.00 1012.4
20140901222036 79 214 12.0 0.0 0.00 0.00 0.00 1012.4
20140901221936 79 235 13.0 0.0 0.00 0.00 0.00 1012.4
20140901221836 80 249 14.0 0.0 0.00 0.00 0.00 1012.4
20140901221736 80 235 15.0 0.0 0.00 0.00 0.00 1012.4
20140901221636 80 215 12.0 0.0 0.00 0.00 0.00 1012.4
20140901221436 80 232 12.0 0.0 0.00 0.00 0.00 1012.4
20140901221336 80 215 14.0 0.0 0.00 0.00 0.00 1012.4
20140901221236 80 214 12.0 0.0 0.00 0.00 0.00 1012.4
20140901221136 80 232 12.0 0.0 0.00 0.00 0.00 1012.5
20140901221036 80 236 15.0 0.0 0.00 0.00 0.00 1012.4
20140901220936 80 228 12.0 0.0 0.00 0.00 0.00 1012.5
20140901220836 80 226 11.0 0.0 0.00 0.00 0.00 1012.5
20140901220736 80 242 15.0 0.0 0.00 0.00 0.00 1012.5
20140901220636 80 218 13.0 0.0 0.00 0.00 0.00 1012.5
20140901220536 80 215 14.0 0.0 0.00 0.00 0.00 1012.5
20140901220436 80 238 12.0 0.0 0.00 0.00 0.00 1012.5
20140901220336 80 233 12.0 0.0 0.00 0.00 0.00 1012.5
20140901220236 80 239 14.0 0.0 0.00 0.00 0.00 1012.5
20140901220136 80 239 15.0 0.0 0.00 0.00 0.00 1012.6
20140901220036 80 235 15.0 0.0 0.00 0.00 0.00 1012.5
20140901215936 80 243 13.0 0.0 0.00 0.00 0.00 1012.5
20140901215836 80 217 12.0 0.0 0.00 0.00 0.00 1012.5
20140901215736 81 236 15.0 0.0 0.00 0.00 0.00 1012.5
20140901215636 80 224 12.0 0.0 0.00 0.00 0.00 1012.6
20140901215536 81 238 16.0 0.0 0.00 0.00 0.00 1012.6
20140901215436 80 228 12.0 0.0 0.00 0.00 0.00 1012.6
20140901215336 81 232 13.0 0.0 0.00 0.00 0.00 1012.6
20140901215236 80 222 15.0 0.0 0.00 0.00 0.00 1012.6